Вернуться в каталог

COSMOS 2589

АктивенНавигацияGEO
NORAD 64467·PAYLOAD·🇷🇺 Russia

Запущен Jun 19, 2025 с Plesetsk Cosmodrome

Loading…

TLE

СвежийSource: Space-Track

Эпоха: Sep 14, 2026, 18:09 UTC

1 64467U 25131A   26257.75633946 -.00000370  00000-0  00000+0 0  9994
2 64467   0.1608  90.8122 0000926 290.3891   2.3123  1.00357418  4458

Отслеживайте COSMOS 2589 в реальном времени с AllMySat

Download on the App Store